TimeCDT,TemperatureF,Dew PointF,Humidity,Sea Level PressureIn,VisibilityMPH,Wind Direction,Wind SpeedMPH,Gust SpeedMPH,PrecipitationIn,Events,Conditions,WindDirDegrees,DateUTC
12:15 AM,68.0,62.6,83,30.06,10.0,South,4.6,-,N/A,,Clear,190,2013-08-21 05:15:00
12:35 AM,68.0,62.6,83,30.06,10.0,South,3.5,-,N/A,,Clear,190,2013-08-21 05:35:00
12:55 AM,68.0,60.8,78,30.06,10.0,SSW,4.6,-,N/A,,Clear,210,2013-08-21 05:55:00
1:15 AM,68.0,60.8,78,30.06,10.0,South,4.6,-,N/A,,Clear,180,2013-08-21 06:15:00
1:35 AM,68.0,60.8,78,30.06,10.0,South,3.5,-,N/A,,Clear,190,2013-08-21 06:35:00
1:55 AM,68.0,60.8,78,30.06,10.0,South,3.5,-,N/A,,Scattered Clouds,190,2013-08-21 06:55:00
2:15 AM,68.0,60.8,78,30.06,10.0,South,4.6,-,N/A,,Mostly Cloudy,180,2013-08-21 07:15:00
2:35 AM,68.0,60.8,78,30.06,10.0,South,4.6,-,N/A,,Mostly Cloudy,190,2013-08-21 07:35:00
2:55 AM,66.2,60.8,83,30.05,10.0,South,4.6,-,N/A,,Mostly Cloudy,190,2013-08-21 07:55:00
3:15 AM,66.2,62.6,88,30.05,10.0,South,5.8,-,N/A,,Scattered Clouds,180,2013-08-21 08:15:00
3:35 AM,66.2,62.6,88,30.06,10.0,SSW,5.8,-,N/A,,Mostly Cloudy,200,2013-08-21 08:35:00
3:55 AM,66.2,62.6,88,30.05,10.0,South,5.8,-,N/A,,Scattered Clouds,190,2013-08-21 08:55:00
4:15 AM,66.2,62.6,88,30.06,10.0,SSW,5.8,-,N/A,,Mostly Cloudy,200,2013-08-21 09:15:00
4:35 AM,66.2,62.6,88,30.06,10.0,SSW,4.6,-,N/A,,Mostly Cloudy,200,2013-08-21 09:35:00
4:55 AM,66.2,62.6,88,30.06,10.0,South,4.6,-,N/A,,Mostly Cloudy,190,2013-08-21 09:55:00
5:15 AM,66.2,62.6,88,30.06,10.0,SSW,4.6,-,N/A,,Mostly Cloudy,200,2013-08-21 10:15:00
5:35 AM,66.2,62.6,88,30.06,10.0,South,5.8,-,N/A,,Overcast,180,2013-08-21 10:35:00
5:45 AM,66.2,62.6,88,30.06,10.0,South,6.9,-,N/A,,Mostly Cloudy,190,2013-08-21 10:45:00
6:45 AM,68.0,62.6,83,30.07,10.0,South,6.9,-,N/A,,Mostly Cloudy,190,2013-08-21 11:45:00
7:45 AM,69.8,64.4,83,30.07,10.0,SSW,6.9,-,N/A,,Scattered Clouds,200,2013-08-21 12:45:00
8:45 AM,73.4,64.4,73,30.06,10.0,SSW,9.2,-,N/A,,Clear,200,2013-08-21 13:45:00
9:45 AM,77.0,64.4,65,30.06,10.0,SW,9.2,-,N/A,,Scattered Clouds,220,2013-08-21 14:45:00
10:45 AM,80.6,66.2,61,30.05,10.0,SW,8.1,-,N/A,,Scattered Clouds,230,2013-08-21 15:45:00
11:45 AM,82.4,66.2,58,30.05,10.0,SSW,12.7,-,N/A,,Mostly Cloudy,200,2013-08-21 16:45:00
12:45 PM,84.2,66.2,55,30.04,10.0,SSW,11.5,-,N/A,,Scattered Clouds,200,2013-08-21 17:45:00
1:45 PM,86.0,66.2,51,30.03,10.0,SW,12.7,24.2,N/A,,Scattered Clouds,220,2013-08-21 18:45:00
2:45 PM,86.0,64.4,48,30.02,10.0,SW,11.5,23.0,N/A,,Scattered Clouds,220,2013-08-21 19:45:00
3:45 PM,87.8,64.4,46,30.00,10.0,SW,13.8,23.0,N/A,,Partly Cloudy,220,2013-08-21 20:45:00
4:45 PM,86.0,64.4,48,29.98,10.0,SSW,16.1,23.0,N/A,,Clear,210,2013-08-21 21:45:00
5:45 PM,84.2,64.4,51,29.96,10.0,SW,13.8,25.3,N/A,,Clear,220,2013-08-21 22:45:00
6:45 PM,82.4,64.4,54,29.95,10.0,SW,8.1,16.1,N/A,,Clear,220,2013-08-21 23:45:00
7:45 PM,80.6,66.2,61,29.98,10.0,SW,8.1,-,N/A,,Scattered Clouds,230,2013-08-22 00:45:00
8:45 PM,78.8,66.2,65,30.01,10.0,SSW,5.8,-,N/A,,Overcast,210,2013-08-22 01:45:00
9:15 PM,77.0,66.2,69,30.03,10.0,SW,4.6,-,N/A,,Mostly Cloudy,220,2013-08-22 02:15:00
9:35 PM,77.0,66.2,69,30.02,10.0,SW,5.8,-,N/A,,Scattered Clouds,230,2013-08-22 02:35:00
9:55 PM,77.0,66.2,69,30.02,10.0,SW,8.1,-,N/A,,Mostly Cloudy,220,2013-08-22 02:55:00
10:15 PM,77.0,66.2,69,30.02,10.0,SW,8.1,-,N/A,,Mostly Cloudy,230,2013-08-22 03:15:00
10:35 PM,77.0,66.2,69,30.03,10.0,SW,6.9,-,N/A,,Scattered Clouds,220,2013-08-22 03:35:00
10:55 PM,77.0,66.2,69,30.02,10.0,SW,6.9,-,N/A,,Scattered Clouds,220,2013-08-22 03:55:00
11:15 PM,75.2,66.2,73,30.03,10.0,Calm,Calm,-,N/A,,Mostly Cloudy,0,2013-08-22 04:15:00
11:35 PM,75.2,66.2,73,30.03,10.0,Calm,Calm,-,N/A,,Overcast,0,2013-08-22 04:35:00
11:55 PM,73.4,66.2,78,30.03,10.0,SE,3.5,-,N/A,,Mostly Cloudy,130,2013-08-22 04:55:00